Flag for U.S.A. Weather past 2 weeks in Decatur, Illinois, U.S.A.

Now
77 °F

Scattered clouds.


Feels Like: 79 °F
Forecast: 63 / 77 °F
Wind: 9 mph from Northeast

Location: Decatur Airport

Current Time: Jul 3, 2015 at 6:12:30 PM

Latest Report: Jul 3, 2015 at 4:54 PM


Visibility: 9 mi

Pressure: 29.89 "Hg

Humidity: 66%

Dew point: 65 °F

Location of DecaturLocation

Historic Weather in Decatur — Graph

°F

Decatur temperature yesterday

Maximum temperature yesterday: 76 °F (at 4:54 PM)
Minimum temperature yesterday: 59 °F (at 5:54 AM)
Average temperature yesterday: 67 °F

Past Weeks' High & Low Weather Summary

 TemperatureHumidityPressure
High88 °F (Jun 22, 3:54 PM)96% (Jun 20, 5:54 AM)30.22 "Hg (Jun 20, 5:54 AM)
Low58 °F (Jun 28, 1:54 AM)44% (Jun 23, 2:54 PM)29.73 "Hg (Jun 29, 3:54 AM)
Average72 °F80%29.92 "Hg
* Reported Jun 18 4:54 PM — Jul 3 4:54 PM, Decatur, Weather by CustomWeather, © 2015

Note: Actual official high and low records may vary slightly from our data, if they occured in-between our weather recording intervals... More about our weather records

Advertising

Decatur weather history for previous 24 hours

 ConditionsComfort  
Time TempWeatherWind HumidityBarometerVisibility
4:54 PM
Fri, Jul 3
77 °FScattered clouds.9 mph66%29.89 "Hg9 mi
3:54 PM77 °FScattered clouds.9 mph69%29.90 "Hg9 mi
2:54 PM76 °FPartly sunny.8 mph72%29.91 "Hg9 mi
1:54 PM76 °FPartly sunny.10 mph74%29.91 "Hg10 mi
12:54 PM76 °FPartly sunny.7 mph74%29.92 "Hg10 mi
12:03 PM74 °FBroken clouds.7 mph74%29.94 "Hg10 mi
11:54 AM74 °FPartly sunny.8 mph74%29.93 "Hg10 mi
10:54 AM72 °FScattered clouds.5 mph76%29.92 "Hg10 mi
9:54 AM70 °FSunny.8 mph76%29.91 "Hg10 mi
8:54 AM69 °FPartly sunny.8 mph79%29.91 "Hg10 mi
7:54 AM66 °FSunny.8 mph84%29.91 "Hg10 mi
6:54 AM63 °FFog.7 mph90%29.90 "Hg6 mi
5:54 AM61 °FFog.6 mph93%29.89 "Hg5 mi
4:54 AM62 °FPassing clouds.5 mph90%29.88 "Hg7 mi
3:54 AM63 °FPassing clouds.8 mph87%29.88 "Hg9 mi
2:54 AM63 °FClear.8 mph90%29.88 "Hg10 mi
1:54 AM63 °FClear.8 mph90%29.89 "Hg10 mi
12:54 AM65 °FPassing clouds.7 mph85%29.92 "Hg10 mi
11:54 PM
Thu, Jul 2
66 °FPassing clouds.6 mph84%29.91 "Hg10 mi
10:54 PM66 °FPassing clouds.10 mph84%29.91 "Hg10 mi
9:54 PM68 °FClear.8 mph78%29.90 "Hg10 mi
8:54 PM68 °FSunny.8 mph78%29.90 "Hg10 mi
7:54 PM70 °FSunny.7 mph76%29.89 "Hg10 mi
6:54 PM72 °FSunny.6 mph71%29.88 "Hg10 mi
Weather by CustomWeather, © 2015

See weather overviewHow to use our weather pages